Location: Agadir Mansour Mhndou
(31.2424°N, 8.7730°W)
Time: 19:51:32
(UTC+00:00)

Cosmos 2219 - Pass Details

Date: 16 October 2021
Orbit: 835 x 858 km, 71.1° (Epoch: 08 December)

Event Time Altitude Azimuth Distance (km) Brightness Sun altitude
Rises 18:51:14 0° 338° (NNW) 3,385 6.6 -11.3°
Reaches altitude 10° 18:53:40 10° 337° (NNW) 2,448 5.9 -11.8°
Maximum altitude 18:59:16 78° 252° (WSW) 857 3.4 -13.0°
Drops below altitude 10° 19:04:52 10° 167° (SSE) 2,441 5.5 -14.2°
Sets 19:07:18 0° 165° (SSE) 3,375 6.2 -14.7°
